Local,Data,Vel_media,Vel_mediana,Vel_std,Volume
5129,2018-03-29 07:00:00,0.0,0.0,0.0,90
5129,2018-03-29 07:04:00,0.0,0.0,0.0,96
5129,2018-03-29 07:08:00,0.0,0.0,0.0,92
5129,2018-03-29 07:12:00,0.0,0.0,0.0,101
5129,2018-03-29 07:16:00,0.0,0.0,0.0,101
5129,2018-03-29 07:20:00,0.0,0.0,0.0,105
5129,2018-03-29 07:24:00,0.0,0.0,0.0,98
5129,2018-03-29 07:28:00,0.0,0.0,0.0,96
5129,2018-03-29 07:32:00,0.0,0.0,0.0,103
5129,2018-03-29 07:36:00,0.0,0.0,0.0,92
5129,2018-03-29 07:40:00,0.0,0.0,0.0,81
5129,2018-03-29 07:44:00,0.0,0.0,0.0,103
5129,2018-03-29 07:48:00,0.0,0.0,0.0,95
5129,2018-03-29 07:52:00,0.0,0.0,0.0,83
5129,2018-03-29 07:56:00,0.0,0.0,0.0,93
5129,2018-03-29 08:00:00,0.0,0.0,0.0,80
5129,2018-03-29 08:04:00,0.0,0.0,0.0,80
5129,2018-03-29 08:08:00,0.0,0.0,0.0,75
5129,2018-03-29 08:12:00,0.0,0.0,0.0,74
5129,2018-03-29 08:16:00,0.0,0.0,0.0,82
5129,2018-03-29 08:20:00,0.0,0.0,0.0,98
5129,2018-03-29 08:24:00,0.0,0.0,0.0,90
5129,2018-03-29 08:28:00,0.0,0.0,0.0,71
5129,2018-03-29 08:32:00,0.0,0.0,0.0,82
5129,2018-03-29 08:36:00,0.0,0.0,0.0,81
5129,2018-03-29 08:40:00,0.0,0.0,0.0,73
5129,2018-03-29 08:44:00,0.0,0.0,0.0,77
5129,2018-03-29 08:48:00,0.0,0.0,0.0,80
5129,2018-03-29 08:52:00,0.0,0.0,0.0,85
5129,2018-03-29 08:56:00,0.0,0.0,0.0,92
5151,2018-03-29 07:00:00,97.48051948051948,106.0,24.465125764523616,77
5151,2018-03-29 07:04:00,96.890625,98.5,22.626096176198914,64
5151,2018-03-29 07:08:00,95.64197530864197,97.0,18.902584903906206,81
5151,2018-03-29 07:12:00,95.71621621621621,103.0,27.62544006729149,74
5151,2018-03-29 07:16:00,100.61538461538461,108.0,26.948267747953388,65
5151,2018-03-29 07:20:00,94.73134328358209,97.0,23.703715403409348,67
5151,2018-03-29 07:24:00,96.8157894736842,101.5,20.596899783747904,76
5151,2018-03-29 07:28:00,92.73626373626374,100.0,24.737212258653358,91
5151,2018-03-29 07:32:00,89.19672131147541,94.0,21.283074152004158,122
5151,2018-03-29 07:36:00,98.72222222222223,103.0,21.61981393437057,90
5151,2018-03-29 07:40:00,91.53191489361703,97.0,24.82788153810346,94
5151,2018-03-29 07:44:00,93.93913043478261,97.0,23.41962251052457,115
5151,2018-03-29 07:48:00,90.32727272727273,94.0,19.884117995451742,110
5151,2018-03-29 07:52:00,93.1145038167939,100.0,25.268296104429734,131
5151,2018-03-29 07:56:00,95.65486725663717,97.0,23.714360444187925,113
5151,2018-03-29 08:00:00,85.37113402061856,92.0,23.663139226983425,97
5151,2018-03-29 08:04:00,91.73584905660377,98.5,23.49763995719466,106
5151,2018-03-29 08:08:00,92.68831168831169,100.0,25.839209159856946,77
5151,2018-03-29 08:12:00,81.275,86.0,22.28763929953593,120
5151,2018-03-29 08:16:00,79.36697247706422,83.0,22.210549941687574,109
5151,2018-03-29 08:20:00,72.98360655737704,76.5,21.521076967182545,122
5151,2018-03-29 08:24:00,83.70434782608696,89.0,25.211377935801423,115
5151,2018-03-29 08:28:00,89.35106382978724,94.0,24.662324863509966,94
5151,2018-03-29 08:32:00,87.11194029850746,92.0,24.461312233952928,134
5151,2018-03-29 08:36:00,86.35772357723577,89.0,22.609707070013467,123
5151,2018-03-29 08:40:00,76.89108910891089,78.0,24.92625161956727,101
5151,2018-03-29 08:44:00,92.5,97.0,20.371003357168686,136
5151,2018-03-29 08:48:00,83.24778761061947,86.0,24.8062243677481,113
5151,2018-03-29 08:52:00,83.9274193548387,89.0,22.522679946785043,124
5151,2018-03-29 08:56:00,87.97222222222223,89.0,20.842739309684422,108
5194,2018-03-29 07:00:00,65.85714285714286,50.0,36.68073323253217,7
5194,2018-03-29 07:04:00,79.125,78.0,10.815828348173007,8
5194,2018-03-29 07:08:00,88.875,90.0,15.103807466993217,8
5194,2018-03-29 07:12:00,75.92307692307692,81.0,28.10237694116976,13
5194,2018-03-29 07:16:00,71.0625,76.5,25.066494901893776,16
5194,2018-03-29 07:20:00,54.666666666666664,57.0,13.706446172026746,6
5194,2018-03-29 07:24:00,94.17647058823529,103.0,26.38710692297861,17
5194,2018-03-29 07:28:00,82.16666666666667,84.5,20.117081540247575,12
5194,2018-03-29 07:32:00,80.375,86.0,20.300656803824516,16
5194,2018-03-29 07:36:00,82.2,86.0,16.31563667161046,5
5194,2018-03-29 07:40:00,82.8,83.5,18.26836975029062,10
5194,2018-03-29 07:44:00,80.66666666666667,83.0,20.015145780285007,12
5194,2018-03-29 07:48:00,76.77777777777777,78.0,22.22758105321234,18
5194,2018-03-29 07:52:00,68.9,65.5,21.899050688389018,20
5194,2018-03-29 07:56:00,75.4,81.0,21.92780361615297,15
5194,2018-03-29 08:00:00,79.08333333333333,82.0,33.985179479332224,12
5194,2018-03-29 08:04:00,85.84210526315789,89.0,15.471346841804532,19
5194,2018-03-29 08:08:00,60.16,56.0,22.35262848078498,25
5194,2018-03-29 08:12:00,65.64285714285714,64.0,22.88636524845556,14
5194,2018-03-29 08:16:00,79.8,75.0,20.41428071578465,15
5194,2018-03-29 08:20:00,61.23076923076923,67.0,23.913573015318608,13
5194,2018-03-29 08:24:00,70.0,62.5,27.268215114956742,10
5194,2018-03-29 08:28:00,61.2,59.5,25.78575698244856,20
5194,2018-03-29 08:32:00,78.15789473684211,78.0,21.320994238581783,19
5194,2018-03-29 08:36:00,71.0,79.5,20.248456731316587,24
5194,2018-03-29 08:40:00,58.15,54.5,21.646137372702196,20
5194,2018-03-29 08:44:00,99.16666666666667,100.0,12.1229809315476,6
5194,2018-03-29 08:48:00,62.72727272727273,65.5,25.555135199504125,22
5194,2018-03-29 08:52:00,56.43478260869565,67.0,25.294315004393823,23
5194,2018-03-29 08:56:00,98.83333333333333,97.0,18.63931979510632,12
5195,2018-03-29 07:00:00,71.58163265306122,72.0,16.68132078962411,98
5195,2018-03-29 07:04:00,77.78947368421052,75.0,17.472711086112774,95
5195,2018-03-29 07:08:00,67.16666666666667,67.0,21.464798826275594,48
5195,2018-03-29 07:12:00,53.333333333333336,56.0,17.005601318109164,57
5195,2018-03-29 07:16:00,52.29090909090909,50.0,23.465240429569615,55
5195,2018-03-29 07:20:00,56.464285714285715,62.5,23.442745949703458,56
5195,2018-03-29 07:24:00,64.02678571428571,62.5,31.775524555016567,112
5195,2018-03-29 07:28:00,54.848837209302324,53.0,19.659763293327263,86
5195,2018-03-29 07:32:00,80.03921568627452,81.0,22.32842205290264,51
5195,2018-03-29 07:36:00,68.64285714285714,72.5,22.162362908100068,14
5195,2018-03-29 07:40:00,48.91489361702128,50.0,19.018191390140178,94
5195,2018-03-29 07:44:00,61.67045454545455,64.0,20.17550671124225,88
5195,2018-03-29 07:48:00,46.6625,48.5,16.86877405073302,80
5195,2018-03-29 07:52:00,43.783018867924525,42.0,17.2218049587648,106
5195,2018-03-29 07:56:00,64.94,67.0,23.147668250917746,100
5195,2018-03-29 08:00:00,63.31132075471698,64.0,22.960157294776938,106
5195,2018-03-29 08:04:00,48.175257731958766,44.0,20.764558301184714,97
5195,2018-03-29 08:08:00,41.828125,42.0,20.675539330022364,64
5195,2018-03-29 08:12:00,45.48529411764706,42.0,33.178167901277156,68
5195,2018-03-29 08:16:00,49.166666666666664,50.0,12.34219690984565,96
5195,2018-03-29 08:20:00,46.28431372549019,44.0,13.106855171804606,102
5195,2018-03-29 08:24:00,51.602409638554214,53.0,12.982107535914661,83
5195,2018-03-29 08:28:00,47.85436893203884,42.0,27.687474256878325,103
5195,2018-03-29 08:32:00,39.535714285714285,39.0,13.355236338692691,56
5195,2018-03-29 08:36:00,46.90291262135922,47.0,17.336640651537003,103
5195,2018-03-29 08:40:00,43.9537037037037,42.0,17.900756658815215,108
5195,2018-03-29 08:44:00,49.95876288659794,53.0,16.590608240415463,97
5195,2018-03-29 08:48:00,46.59,44.0,16.711512393097358,100
5195,2018-03-29 08:52:00,49.36283185840708,50.0,24.42190978656791,113
5195,2018-03-29 08:56:00,42.31645569620253,42.0,16.965685053311,79
5196,2018-03-29 07:00:00,106.22222222222223,119.0,41.73660796524371,9
5196,2018-03-29 07:04:00,107.75,104.5,9.845395785940662,12
5196,2018-03-29 07:08:00,109.45454545454545,111.0,15.082199019795729,11
5196,2018-03-29 07:12:00,100.13333333333334,100.0,21.206018911979644,15
5196,2018-03-29 07:16:00,118.1923076923077,108.0,59.4454501073172,26
5196,2018-03-29 07:20:00,112.71428571428571,114.0,36.22882102039028,14
5196,2018-03-29 07:24:00,119.2,105.5,39.454052038063494,10
5196,2018-03-29 07:28:00,90.6470588235294,97.0,26.095835818360435,17
5196,2018-03-29 07:32:00,119.63636363636364,117.0,20.66045850058864,11
5196,2018-03-29 07:36:00,98.8,100.0,21.129532480799067,15
5196,2018-03-29 07:40:00,105.85714285714286,107.0,21.18365532072434,14
5196,2018-03-29 07:44:00,114.54545454545455,104.5,42.016694270284965,22
5196,2018-03-29 07:48:00,118.70833333333333,104.5,84.55329123086231,24
5196,2018-03-29 07:52:00,95.88,100.0,15.974771777190847,25
5196,2018-03-29 07:56:00,110.73076923076923,112.5,8.674365416825339,26
5196,2018-03-29 08:00:00,106.42857142857143,108.0,12.834534456896938,14
5196,2018-03-29 08:04:00,108.22222222222223,107.0,22.414689394537564,18
5196,2018-03-29 08:08:00,109.76470588235294,108.0,23.951851211766247,17
5196,2018-03-29 08:12:00,111.3125,109.5,11.341479915190375,16
5196,2018-03-29 08:16:00,113.375,112.5,13.850992744204293,16
5196,2018-03-29 08:20:00,104.52941176470588,97.0,36.83089336253403,17
5196,2018-03-29 08:24:00,111.83870967741936,103.0,36.89001380156383,31
5196,2018-03-29 08:28:00,105.74074074074075,108.0,23.157641358228894,27
5196,2018-03-29 08:32:00,97.20833333333333,95.5,14.098964398190718,24
5196,2018-03-29 08:36:00,91.88888888888889,94.0,12.071368966192226,27
5196,2018-03-29 08:40:00,87.2,89.0,16.481568652988035,20
5196,2018-03-29 08:44:00,100.84210526315789,100.0,35.062267084423034,19
5196,2018-03-29 08:48:00,96.35,100.0,19.75181537293005,20
5196,2018-03-29 08:52:00,104.91176470588235,108.0,15.731396222029183,34
5196,2018-03-29 08:56:00,110.4,107.0,36.78872825086224,20
5197,2018-03-29 07:00:00,96.67149758454106,100.0,22.14708793627354,207
5197,2018-03-29 07:04:00,96.7578947368421,97.0,21.100523221012825,190
5197,2018-03-29 07:08:00,97.75,97.0,24.17519389787805,176
5197,2018-03-29 07:12:00,93.43718592964824,94.0,23.2877221763363,199
5197,2018-03-29 07:16:00,78.56108597285068,75.0,19.73603365090989,221
5197,2018-03-29 07:20:00,87.70098039215686,89.0,21.48968819088553,204
5197,2018-03-29 07:24:00,90.2139303482587,97.0,26.32582391825799,201
5197,2018-03-29 07:28:00,94.31155778894473,97.0,20.220836765085416,199
5197,2018-03-29 07:32:00,86.05140186915888,89.0,24.49244729608207,214
5197,2018-03-29 07:36:00,95.20476190476191,97.0,20.412984332744614,210
5197,2018-03-29 07:40:00,96.11290322580645,98.5,19.999274180378027,186
5197,2018-03-29 07:44:00,91.26315789473684,94.0,23.22820331253318,190
5197,2018-03-29 07:48:00,70.41584158415841,69.0,23.019467135419546,202
5197,2018-03-29 07:52:00,58.56038647342995,58.0,14.424055414729757,207
5197,2018-03-29 07:56:00,77.40654205607477,81.0,23.21886383421343,214
5197,2018-03-29 08:00:00,79.18840579710145,75.0,22.804322977788797,207
5197,2018-03-29 08:04:00,83.375,83.0,24.12497559037483,200
5197,2018-03-29 08:08:00,79.81188118811882,78.0,49.220634929988336,202
5197,2018-03-29 08:12:00,70.04830917874396,67.0,36.83639484248322,207
5197,2018-03-29 08:16:00,85.06829268292682,83.0,21.784713553769738,205
5197,2018-03-29 08:20:00,94.29680365296804,94.0,23.234712618632617,219
5197,2018-03-29 08:24:00,63.394366197183096,61.0,18.686953530778986,213
5197,2018-03-29 08:28:00,58.73529411764706,56.0,20.136199528216896,204
5197,2018-03-29 08:32:00,65.13942307692308,61.0,19.254832724291095,208
5197,2018-03-29 08:36:00,62.051886792452834,61.0,16.71966082295083,212
5197,2018-03-29 08:40:00,62.22274881516588,64.0,16.69823640612089,211
5197,2018-03-29 08:44:00,68.085,67.0,17.935332608538225,200
5197,2018-03-29 08:48:00,68.87441860465117,67.0,20.33775657574432,215
5197,2018-03-29 08:52:00,61.73,64.0,17.93923579488609,200
5197,2018-03-29 08:56:00,69.54838709677419,67.0,15.973030211758788,217
5198,2018-03-29 07:00:00,109.875,107.0,13.554212137437817,16
5198,2018-03-29 07:04:00,117.6842105263158,122.0,12.283921883588533,19
5198,2018-03-29 07:08:00,109.1,105.5,21.14736652898207,10
5198,2018-03-29 07:12:00,107.0,108.0,14.787382008545888,13
5198,2018-03-29 07:16:00,117.2,111.0,27.671887057686057,10
5198,2018-03-29 07:20:00,104.18181818181819,100.0,17.730302771347038,11
5198,2018-03-29 07:24:00,111.33333333333333,114.0,12.357422156458894,18
5198,2018-03-29 07:28:00,109.41666666666667,109.5,13.242207542780042,12
5198,2018-03-29 07:32:00,107.93333333333334,108.0,14.164677731529766,15
5198,2018-03-29 07:36:00,111.4090909090909,114.0,12.175928989331645,22
5198,2018-03-29 07:40:00,111.94444444444444,112.5,15.497522466974488,18
5198,2018-03-29 07:44:00,109.10526315789474,111.0,6.66578941596655,19
5198,2018-03-29 07:48:00,111.07142857142857,117.0,18.139232233800474,28
5198,2018-03-29 07:52:00,114.66666666666667,117.0,12.73019917418784,24
5198,2018-03-29 07:56:00,109.10526315789474,111.0,16.15169319243206,19
5198,2018-03-29 08:00:00,116.6969696969697,117.0,10.760125604764243,33
5198,2018-03-29 08:04:00,107.93333333333334,108.0,9.247304670992566,30
5198,2018-03-29 08:08:00,111.72222222222223,114.0,11.364576312878622,18
5198,2018-03-29 08:12:00,102.8076923076923,106.0,22.54243860946589,26
5198,2018-03-29 08:16:00,110.78571428571429,111.0,15.302764559863133,28
5198,2018-03-29 08:20:00,107.83333333333333,107.0,12.729077412157798,18
5198,2018-03-29 08:24:00,111.44444444444444,111.0,12.466365003891728,27
5198,2018-03-29 08:28:00,119.33333333333333,115.5,23.23540526806052,24
5198,2018-03-29 08:32:00,99.0,104.5,22.32786002583618,16
5198,2018-03-29 08:36:00,111.04545454545455,108.0,12.194757939874053,22
5198,2018-03-29 08:40:00,113.84615384615384,111.0,12.948180745393723,26
5198,2018-03-29 08:44:00,113.875,112.5,18.923903678543248,24
5198,2018-03-29 08:48:00,116.68,119.0,14.559418486555934,25
5198,2018-03-29 08:52:00,112.22727272727273,116.5,16.755757555402,22
5198,2018-03-29 08:56:00,114.9,114.0,11.327191318146559,20
5199,2018-03-29 07:00:00,103.39354838709677,106.0,14.543038131917612,155
5199,2018-03-29 07:04:00,99.44252873563218,100.0,15.01770155658056,174
5199,2018-03-29 07:08:00,100.98816568047337,103.0,13.645594163231754,169
5199,2018-03-29 07:12:00,105.7375,106.0,13.630103337140627,160
5199,2018-03-29 07:16:00,99.2797619047619,100.0,13.282253972938994,168
5199,2018-03-29 07:20:00,90.875,92.0,17.244643581136632,184
5199,2018-03-29 07:24:00,88.2183908045977,89.0,16.970511852623392,174
5199,2018-03-29 07:28:00,101.98224852071006,103.0,15.438616307347257,169
5199,2018-03-29 07:32:00,101.37951807228916,103.0,10.985690516757446,166
5199,2018-03-29 07:36:00,97.1304347826087,98.5,17.400595047487666,184
5199,2018-03-29 07:40:00,102.28813559322033,103.0,17.509138050007984,177
5199,2018-03-29 07:44:00,100.24193548387096,100.0,14.84334647618357,186
5199,2018-03-29 07:48:00,98.4065934065934,100.0,14.813371607647415,182
5199,2018-03-29 07:52:00,107.62352941176471,106.0,15.433366198055168,170
5199,2018-03-29 07:56:00,105.08064516129032,100.0,67.40101011042667,186
5199,2018-03-29 08:00:00,98.10404624277457,100.0,17.115566009098345,173
5199,2018-03-29 08:04:00,92.9322033898305,92.0,15.32399826932898,177
5199,2018-03-29 08:08:00,93.19209039548022,94.0,15.833915865260426,177
5199,2018-03-29 08:12:00,93.26063829787235,92.0,17.033190111244515,188
5199,2018-03-29 08:16:00,95.05649717514125,94.0,18.323084519175996,177
5199,2018-03-29 08:20:00,87.09302325581395,89.0,24.161071539585667,172
5199,2018-03-29 08:24:00,101.81720430107526,103.0,15.591020448588532,186
5199,2018-03-29 08:28:00,101.6470588235294,100.0,12.418488186162374,187
5199,2018-03-29 08:32:00,97.72105263157894,97.0,17.329397567432206,190
5199,2018-03-29 08:36:00,96.52247191011236,94.0,11.735409287420458,178
5199,2018-03-29 08:40:00,88.88947368421053,87.5,27.649801605473694,190
5199,2018-03-29 08:44:00,96.98936170212765,97.0,18.680250476885128,188
5199,2018-03-29 08:48:00,101.27127659574468,100.0,18.881443355168123,188
5199,2018-03-29 08:52:00,97.5,94.0,41.3784727904644,192
5199,2018-03-29 08:56:00,81.54857142857144,78.0,21.85681423280219,175
5200,2018-03-29 07:00:00,121.5,122.0,11.726039399558578,14
5200,2018-03-29 07:04:00,118.0,115.5,12.710450643291745,10
5200,2018-03-29 07:08:00,117.21428571428571,118.0,10.176734941322488,14
5200,2018-03-29 07:12:00,119.0,119.0,9.363047936792094,7
5200,2018-03-29 07:16:00,119.83333333333333,120.5,10.581573463795305,12
5200,2018-03-29 07:20:00,119.35,118.0,15.438417562758994,20
5200,2018-03-29 07:24:00,121.2,117.0,8.757853618324527,5
5200,2018-03-29 07:28:00,115.52941176470588,117.0,15.236131591790384,17
5200,2018-03-29 07:32:00,122.0625,125.0,15.233597736582125,16
5200,2018-03-29 07:36:00,114.85714285714286,118.0,14.669996292051039,14
5200,2018-03-29 07:40:00,121.3913043478261,122.0,13.269031376701518,23
5200,2018-03-29 07:44:00,117.76470588235294,117.0,12.13223707609558,17
5200,2018-03-29 07:48:00,119.77777777777777,118.0,17.781535550563333,18
5200,2018-03-29 07:52:00,114.66666666666667,115.5,10.238336261901381,18
5200,2018-03-29 07:56:00,123.0,117.0,26.092783165721002,13
5200,2018-03-29 08:00:00,114.23529411764706,111.0,13.55327179948031,17
5200,2018-03-29 08:04:00,115.64285714285714,118.0,19.362457537842708,28
5200,2018-03-29 08:08:00,118.125,120.5,13.389094709608157,8
5200,2018-03-29 08:12:00,109.0952380952381,117.0,16.703007998276124,21
5200,2018-03-29 08:16:00,111.48,111.0,13.488019375233224,25
5200,2018-03-29 08:20:00,108.29166666666667,107.0,12.369243647280829,24
5200,2018-03-29 08:24:00,102.54838709677419,103.0,15.301064689921459,31
5200,2018-03-29 08:28:00,103.06896551724138,108.0,18.685232967091494,29
5200,2018-03-29 08:32:00,102.18518518518519,106.0,13.382069050777313,27
5200,2018-03-29 08:36:00,63.6,65.5,28.77302868116562,40
5200,2018-03-29 08:40:00,87.03448275862068,86.0,26.524224451595572,29
5200,2018-03-29 08:44:00,105.06060606060606,100.0,16.79088181487834,33
5200,2018-03-29 08:48:00,105.9375,103.0,13.278499477994362,32
5200,2018-03-29 08:52:00,105.03125,107.0,15.023603740608936,32
5200,2018-03-29 08:56:00,116.28,114.0,14.61312195710873,25
5201,2018-03-29 07:00:00,100.975,100.0,13.256019720245192,120
5201,2018-03-29 07:04:00,89.31654676258992,89.0,21.957480641109107,139
5201,2018-03-29 07:08:00,73.95555555555555,78.0,23.25904307096735,135
5201,2018-03-29 07:12:00,76.3913043478261,79.5,22.30427761094523,138
5201,2018-03-29 07:16:00,95.1774193548387,97.0,21.056659293515676,124
5201,2018-03-29 07:20:00,97.0,94.0,13.5089798768609,135
5201,2018-03-29 07:24:00,97.4308943089431,100.0,21.751608683984657,123
5201,2018-03-29 07:28:00,79.32835820895522,82.0,22.877501874573138,134
5201,2018-03-29 07:32:00,74.69354838709677,75.0,23.276764442601095,124
5201,2018-03-29 07:36:00,72.96478873239437,75.0,20.8780355492265,142
5201,2018-03-29 07:40:00,69.9322033898305,72.0,23.43958548594985,118
5201,2018-03-29 07:44:00,71.15151515151516,75.0,19.90185263096898,132
5201,2018-03-29 07:48:00,90.765625,93.0,21.260841375266683,128
5201,2018-03-29 07:52:00,68.00952380952381,69.0,26.45551245381837,105
5201,2018-03-29 07:56:00,81.94791666666667,83.0,26.155152372219806,96
5201,2018-03-29 08:00:00,101.73553719008264,103.0,12.623898364505134,121
5201,2018-03-29 08:04:00,96.33333333333333,97.0,14.80389044858794,117
5201,2018-03-29 08:08:00,93.97979797979798,94.0,20.675322862508715,99
5201,2018-03-29 08:12:00,74.35820895522389,78.0,19.624445008224345,134
5201,2018-03-29 08:16:00,73.9296875,78.0,22.152365577720506,128
5201,2018-03-29 08:20:00,73.85714285714286,78.0,26.437672920485063,105
5201,2018-03-29 08:24:00,42.346666666666664,44.0,20.734156004651485,75
5201,2018-03-29 08:28:00,50.0,53.0,23.668630751115558,99
5201,2018-03-29 08:32:00,52.325581395348834,54.5,23.87094806292177,86
5201,2018-03-29 08:36:00,50.03636363636364,53.0,17.764993549952617,110
5201,2018-03-29 08:40:00,53.31818181818182,53.0,17.90235073395394,110
5201,2018-03-29 08:44:00,56.88181818181818,61.0,21.178460504116845,110
5201,2018-03-29 08:48:00,46.479166666666664,44.0,21.186877352026762,96
5201,2018-03-29 08:52:00,39.8021978021978,42.0,16.567182943142466,91
5201,2018-03-29 08:56:00,44.31578947368421,47.0,19.492095046887837,95
5202,2018-03-29 07:00:00,114.22222222222223,111.0,21.225832085278032,18
5202,2018-03-29 07:04:00,109.06666666666666,108.0,9.369148967806648,15
5202,2018-03-29 07:08:00,113.95652173913044,117.0,8.137892629095553,23
5202,2018-03-29 07:12:00,112.07142857142857,108.0,7.300835418100984,14
5202,2018-03-29 07:16:00,112.5,111.0,11.875961499536004,14
5202,2018-03-29 07:20:00,108.36363636363636,107.0,11.2949438943165,22
5202,2018-03-29 07:24:00,118.47826086956522,111.0,26.006764094291437,23
5202,2018-03-29 07:28:00,107.08,108.0,14.340850741849314,25
5202,2018-03-29 07:32:00,110.3076923076923,111.0,11.188455588754797,26
5202,2018-03-29 07:36:00,107.0,108.0,12.07817672255115,18
5202,2018-03-29 07:40:00,108.95652173913044,111.0,11.331686309835177,23
5202,2018-03-29 07:44:00,114.3076923076923,114.0,13.939208674151432,26
5202,2018-03-29 07:48:00,114.12,114.0,11.698717878468566,25
5202,2018-03-29 07:52:00,115.51724137931035,117.0,16.16349654900372,29
5202,2018-03-29 07:56:00,110.6,108.0,9.75775553615934,30
5202,2018-03-29 08:00:00,104.55172413793103,106.0,12.016614114563435,29
5202,2018-03-29 08:04:00,105.0,103.0,21.400934559032702,25
5202,2018-03-29 08:08:00,105.66666666666667,103.0,25.685193529865934,33
5202,2018-03-29 08:12:00,104.0,100.0,21.832248139473162,35
5202,2018-03-29 08:16:00,105.07692307692308,106.0,11.008807662678377,26
5202,2018-03-29 08:20:00,100.71875,95.5,17.49881908457936,32
5202,2018-03-29 08:24:00,113.2,114.0,8.97716401121259,20
5202,2018-03-29 08:28:00,102.03846153846153,103.0,14.578012948905677,26
5202,2018-03-29 08:32:00,107.60606060606061,103.0,15.140878842432238,33
5202,2018-03-29 08:36:00,107.375,108.0,12.968323691011058,32
5202,2018-03-29 08:40:00,107.44444444444444,106.0,21.349258761680762,18
5202,2018-03-29 08:44:00,111.81481481481481,114.0,8.909964331436147,27
5202,2018-03-29 08:48:00,111.82352941176471,111.0,18.22510388899624,17
5202,2018-03-29 08:52:00,112.3529411764706,114.0,6.382996714617945,17
5202,2018-03-29 08:56:00,108.48387096774194,103.0,28.923889742727592,31
5203,2018-03-29 07:00:00,100.88392857142857,100.0,11.00756949690013,112
5203,2018-03-29 07:04:00,98.88095238095238,97.0,16.2651072632711,126
5203,2018-03-29 07:08:00,98.70796460176992,100.0,13.259552766596785,113
5203,2018-03-29 07:12:00,94.35897435897436,94.0,16.97181311228421,117
5203,2018-03-29 07:16:00,95.21052631578948,95.5,14.119260481154797,114
5203,2018-03-29 07:20:00,86.75213675213675,83.0,12.598512489443147,117
5203,2018-03-29 07:24:00,94.42372881355932,92.0,14.466233468440777,118
5203,2018-03-29 07:28:00,93.2824427480916,92.0,16.52051163724395,131
5203,2018-03-29 07:32:00,94.23571428571428,94.0,15.195422784076948,140
5203,2018-03-29 07:36:00,96.13483146067416,97.0,24.549204306322107,89
5203,2018-03-29 07:40:00,102.45378151260505,94.0,74.86742496122557,119
5203,2018-03-29 07:44:00,92.0,89.0,17.729448195962934,109
5203,2018-03-29 07:48:00,97.36585365853658,94.0,16.607458472903925,123
5203,2018-03-29 07:52:00,95.2695652173913,94.0,14.773329299153785,115
5203,2018-03-29 07:56:00,89.82456140350877,89.0,15.799767901305836,114
5203,2018-03-29 08:00:00,80.0,81.0,23.313443904036728,121
5203,2018-03-29 08:04:00,53.16981132075472,53.0,22.46117144810582,106
5203,2018-03-29 08:08:00,46.266666666666666,44.0,25.144436693416168,90
5203,2018-03-29 08:12:00,64.56880733944953,67.0,26.10533043782618,109
5203,2018-03-29 08:16:00,74.42708333333333,64.0,96.26025520668506,96
5203,2018-03-29 08:20:00,74.95,75.0,21.499060350619878,100
5203,2018-03-29 08:24:00,73.56603773584905,73.5,20.916167757855472,106
5203,2018-03-29 08:28:00,85.58119658119658,78.0,71.81696554391004,117
5203,2018-03-29 08:32:00,77.67175572519083,81.0,24.741880641191116,131
5203,2018-03-29 08:36:00,82.10434782608695,83.0,23.75990058201905,115
5203,2018-03-29 08:40:00,73.2439024390244,72.0,32.57861650682239,123
5203,2018-03-29 08:44:00,98.68333333333334,95.5,38.09165932069541,120
5203,2018-03-29 08:48:00,94.8062015503876,92.0,17.43563050882617,129
5203,2018-03-29 08:52:00,88.27118644067797,87.5,18.69396402286095,118